Change the Weather History Date:

Tuesday, March 5, 2013

  Actual Average (KEMV) Record (KEMV)
Temperature  
Mean Temperature 38 °F -  
Max Temperature 52 °F 57 °F 80 °F (2004)
Min Temperature 25 °F 34 °F 17 °F (2002)
Degree Days  
Heating Degree Days 26    
Moisture  
Dew Point 27 °F    
Average Humidity 63    
Maximum Humidity 91    
Minimum Humidity 29    
Precipitation  
Precipitation 0.18 in - - ()
Sea Level Pressure  
Sea Level Pressure 29.97 in    
Wind  
Wind Speed 2 mph (East)    
Max Wind Speed 12 mph    
Max Gust Speed 16 mph    
Visibility 10 miles    
Events Rain , Snow    
Averages and records for this station are not official NWS values.
T = Trace of Precipitation, MM = Missing Value Source: NWS Daily Summary

Daily Weather History Graph

Daily Weather History Graph

Search for Another Location

Airport or City:

Trip Planner

Search our weather history database for the weather conditions in past years. The results will help you decide how hot, cold, wet, or windy it might be!

Date:

Astronomy

Mar. 05, 2013 Rise Set
Actual Time 6:33 AM EST 6:07 PM EST
Civil Twilight 6:07 AM EST 6:33 PM EST
Nautical Twilight 5:37 AM EST 7:02 PM EST
Astronomical Twilight 5:08 AM EST 7:32 PM EST
Moon 1:35 AM EST (3/5) 11:52 AM EST (3/5)
Length of Visible Light 12h 25m
Length of Day
11h 34m
Last Quarter, 41% of the Moon is Illuminated
Mar 5
Last Quarter
Mar 11
New
Mar 19
First Quarter
Mar 27
Full
Apr 3
Last Quarter

Hourly Weather History & Observations

Time (EST) Temp. Windchill Dew Point Humidity Pressure Visibility Wind Dir Wind Speed Gust Speed Precip Events Conditions
12:15 AM 27.7 °F - 21.4 °F 77% 30.06 in 10.0 mi Calm Calm - N/A   Clear
12:35 AM 27.9 °F - 21.2 °F 76% 30.06 in 10.0 mi Calm Calm - N/A   Clear
12:55 AM 27.5 °F - 20.8 °F 76% 30.08 in 10.0 mi Calm Calm - N/A   Clear
1:35 AM 27.9 °F - 21.6 °F 77% 30.08 in 10.0 mi Calm Calm - N/A   Clear
1:55 AM 27.9 °F - 21.2 °F 76% 30.07 in 10.0 mi Calm Calm - N/A   Clear
2:15 AM 27.9 °F - 21.2 °F 76% 30.08 in 10.0 mi Calm Calm - N/A   Clear
2:35 AM 27.9 °F - 21.6 °F 77% 30.08 in 10.0 mi Calm Calm - N/A   Clear
3:15 AM 27.3 °F - 21.7 °F 80% 30.08 in 10.0 mi Calm Calm - N/A   Scattered Clouds
4:15 AM 26.1 °F - 20.7 °F 80% 30.09 in 10.0 mi Calm Calm - N/A   Scattered Clouds
4:35 AM 25.7 °F - 20.7 °F 81% 30.09 in 10.0 mi Calm Calm - N/A   Clear
4:55 AM 27.5 °F - 22.3 °F 81% 30.09 in 10.0 mi Calm Calm - N/A   Mostly Cloudy
5:15 AM 27.9 °F - 22.5 °F 80% 30.09 in 10.0 mi Calm Calm - N/A   Overcast
5:55 AM 29.8 °F - 25.5 °F 84% 30.10 in 10.0 mi Calm Calm - N/A   Mostly Cloudy
6:15 AM 30.2 °F - 25.7 °F 83% 30.11 in 10.0 mi Calm Calm - N/A   Overcast
6:35 AM 30.2 °F - 25.5 °F 83% 30.11 in 10.0 mi Calm Calm - N/A Snow Light Snow
7:15 AM 30.4 °F - 26.1 °F 84% 30.11 in 10.0 mi Calm Calm - N/A Rain Light Freezing Rain
7:35 AM 31.6 °F - 27.5 °F 85% 30.11 in 10.0 mi Calm Calm - N/A   Scattered Clouds
7:55 AM 32.5 °F - 26.6 °F 79% 30.11 in 10.0 mi Calm Calm - N/A   Scattered Clouds
8:15 AM 35.6 °F - 24.4 °F 64% 30.10 in 10.0 mi Calm Calm - N/A   Scattered Clouds
8:35 AM 37.8 °F 35.3 °F 23.5 °F 57% 30.10 in 10.0 mi ESE 3.5 mph - N/A   Clear
8:55 AM 40.1 °F 36.1 °F 22.8 °F 50% 30.10 in 10.0 mi SE 5.8 mph - N/A   Clear
9:15 AM 42.8 °F 38.6 °F 21.7 °F 43% 30.09 in 10.0 mi ESE 6.9 mph - N/A   Clear
9:35 AM 43.2 °F 39.0 °F 23.0 °F 45% 30.09 in 10.0 mi ESE 6.9 mph - N/A   Clear
9:55 AM 45.1 °F 43.7 °F 22.1 °F 40% 30.09 in 10.0 mi East 3.5 mph - N/A   Clear
10:15 AM 45.3 °F 42.3 °F 20.1 °F 37% 30.07 in 10.0 mi ENE 5.8 mph - N/A   Clear
10:55 AM 50.0 °F - 21.6 °F 33% 30.05 in 10.0 mi East 5.8 mph - N/A   Scattered Clouds
11:15 AM 50.0 °F - 21.7 °F 33% 30.04 in 10.0 mi ENE 5.8 mph - N/A   Scattered Clouds
11:35 AM 50.0 °F - 19.8 °F 30% 30.04 in 10.0 mi ESE 4.6 mph - N/A   Clear
11:55 AM 50.2 °F - 19.2 °F 29% 30.03 in 10.0 mi ESE 5.8 mph - N/A   Scattered Clouds
12:15 PM 50.0 °F - 19.8 °F 30% 30.02 in 10.0 mi SE 3.5 mph - N/A   Overcast
12:35 PM 50.7 °F - 21.2 °F 31% 30.01 in 10.0 mi East 8.1 mph - N/A   Overcast
12:55 PM 51.8 °F - 22.6 °F 32% 30.00 in 10.0 mi East 4.6 mph - N/A   Overcast
1:15 PM 51.6 °F - 23.4 °F 33% 29.99 in 10.0 mi ESE 5.8 mph - N/A   Overcast
1:35 PM 52.0 °F - 24.4 °F 34% 29.99 in 10.0 mi East 4.6 mph - N/A   Overcast
1:55 PM 52.7 °F - 25.3 °F 35% 29.97 in 10.0 mi East 4.6 mph - N/A   Mostly Cloudy
2:15 PM 52.7 °F - 25.0 °F 34% 29.97 in 10.0 mi East 5.8 mph - N/A   Mostly Cloudy
2:35 PM 51.6 °F - 25.0 °F 36% 29.96 in 10.0 mi ESE 5.8 mph - N/A   Mostly Cloudy
2:55 PM 50.0 °F - 24.4 °F 37% 29.96 in 10.0 mi East 6.9 mph - N/A   Mostly Cloudy
3:15 PM 50.0 °F - 26.8 °F 41% 29.95 in 10.0 mi Calm Calm - N/A   Overcast
3:35 PM 50.0 °F - 28.2 °F 43% 29.95 in 10.0 mi Calm Calm - N/A Rain Light Rain
3:55 PM 50.0 °F - 30.2 °F 47% 29.95 in 10.0 mi East 3.5 mph - N/A Rain Light Rain
4:15 PM 48.7 °F - 34.0 °F 57% 29.94 in 10.0 mi Calm Calm - N/A Rain Light Rain
4:35 PM 46.4 °F 44.3 °F 33.6 °F 61% 29.93 in 10.0 mi East 4.6 mph - N/A Rain Light Rain
4:55 PM 45.1 °F 41.4 °F 33.4 °F 64% 29.94 in 10.0 mi East 6.9 mph - N/A   Light Drizzle
5:15 PM 45.1 °F 41.4 °F 32.0 °F 60% 29.93 in 10.0 mi East 6.9 mph - N/A   Overcast
5:35 PM 45.1 °F 43.7 °F 33.1 °F 63% 29.93 in 10.0 mi East 3.5 mph - N/A   Light Drizzle
5:55 PM 45.1 °F 42.8 °F 33.1 °F 63% 29.92 in 10.0 mi East 4.6 mph - N/A   Overcast
6:15 PM 45.1 °F 43.7 °F 33.8 °F 65% 29.93 in 10.0 mi East 3.5 mph - N/A Rain Rain
6:35 PM 40.5 °F - 34.3 °F 79% 29.91 in 10.0 mi Calm Calm - N/A Rain Light Rain
6:55 PM 40.1 °F 36.9 °F 34.2 °F 79% 29.90 in 10.0 mi East 4.6 mph - N/A Rain Light Rain
7:15 PM 38.8 °F 33.8 °F 32.9 °F 79% 29.90 in 10.0 mi East 6.9 mph - N/A   Overcast
7:35 PM 38.7 °F 32.4 °F 32.0 °F 77% 29.88 in 10.0 mi East 9.2 mph - N/A Rain Light Rain
7:55 PM 38.3 °F 34.8 °F 31.5 °F 76% 29.87 in 10.0 mi ENE 4.6 mph - N/A   Drizzle
8:15 PM 38.1 °F 34.6 °F 31.3 °F 76% 29.86 in 10.0 mi East 4.6 mph - N/A   Overcast
8:35 PM 38.3 °F 30.9 °F 30.4 °F 73% 29.84 in 10.0 mi East 11.5 mph 16.1 mph N/A   Overcast
8:55 PM 38.3 °F 32.5 °F 30.2 °F 73% 29.81 in 10.0 mi East 8.1 mph 16.1 mph N/A   Overcast
9:15 PM 38.3 °F 33.9 °F 29.8 °F 72% 29.79 in 10.0 mi East 5.8 mph - N/A   Overcast
9:35 PM 38.7 °F 33.6 °F 30.0 °F 71% 29.78 in 10.0 mi East 6.9 mph - N/A   Mostly Cloudy
9:55 PM 38.8 °F 32.6 °F 30.0 °F 71% 29.75 in 10.0 mi East 9.2 mph - N/A   Mostly Cloudy
10:15 PM 39.7 °F 34.3 °F 31.1 °F 71% 29.74 in 10.0 mi East 8.1 mph - N/A   Mostly Cloudy
10:35 PM 39.0 °F 34.0 °F 32.5 °F 78% 29.73 in 7.0 mi East 6.9 mph - N/A Rain Rain
10:55 PM 38.3 °F 34.8 °F 34.0 °F 84% 29.72 in 5.0 mi East 4.6 mph - N/A Rain Heavy Rain
11:15 PM 37.9 °F 33.5 °F 34.9 °F 89% 29.68 in 7.0 mi East 5.8 mph - N/A Rain Rain
11:35 PM 38.7 °F 34.3 °F 35.8 °F 89% 29.67 in 3.0 mi East 5.8 mph - 0.06 in Rain Heavy Rain
11:55 PM 38.8 °F 34.6 °F 36.5 °F 91% 29.64 in 2.0 mi ENE 5.8 mph - 0.18 in   Overcast